Flag for Sweden Weather past 2 weeks in Södertälje, Sweden

Now
32 °F

Overcast.


Feels Like: 27 °F
Forecast: 31 / 55 °F
Wind: 5 mph from Northeast

Location: Stockholm Bromma Airport


UV Index: 3 (Moderate)

Visibility: N/A


Pressure: 30.54 "Hg

Humidity: 80%

Dew point: 27 °F

Location of SödertäljeLocation

Historic Weather in Södertälje

°F

Södertälje temperature yesterday

Maximum temperature yesterday: 52 °F (at 1:20 PM)
Minimum temperature yesterday: 36 °F (at 11:20 PM)
Average temperature yesterday: 44 °F

Past Weeks' High & Low Weather Summary

 TemperatureHumidityPressure
High64 °F (Apr 21, 1:50 PM)100% (Apr 11, 10:50 PM)30.54 "Hg (Apr 11, 10:50 PM)
Low28 °F (Apr 16, 5:50 AM)27% (Apr 15, 4:20 PM)29.30 "Hg (Apr 14, 1:20 AM)
Average45 °F66%29.98 "Hg
* Reported Apr 9 2:20 AM — Apr 24 2:20 AM, Södertälje, Weather by CustomWeather, © 2014

Note: Actual official high and low records may vary slightly from our data, if they occured in-between our weather recording intervals... More about our weather records

Advertising

Historic Weather Conditions — Data for Previous 24 hours

 ConditionsComfort  
Time TempWeatherWind HumidityBarometerVisibility
2:20 AM
Apr 24
30 °FOvercast.1 mph86%30.54 "HgN/A
1:50 AM32 °FOvercast.5 mph80%30.54 "HgN/A
1:20 AM34 °FOvercast.5 mph75%30.54 "HgN/A
12:50 AM34 °FOvercast.5 mph75%30.54 "HgN/A
12:20 AM36 °FOvercast.6 mph70%30.54 "HgN/A
11:50 PM
Apr 23
36 °FOvercast.7 mph65%30.54 "HgN/A
11:20 PM36 °FOvercast.8 mph65%30.54 "HgN/A
10:50 PM37 °FOvercast.8 mph56%30.54 "HgN/A
10:20 PM37 °FOvercast.7 mph52%30.54 "HgN/A
9:50 PM39 °FClear.8 mph48%30.54 "Hg10 mi
9:20 PM41 °FSunny.9 mph42%30.51 "Hg10 mi
8:50 PM41 °FSunny.12 mph39%30.51 "Hg10 mi
8:20 PM43 °FSunny.10 mph36%30.51 "Hg10 mi
7:50 PM45 °FSunny.13 mph34%30.48 "Hg10 mi
7:20 PM46 °FPassing clouds.9 mph34%30.48 "HgN/A
6:50 PM46 °FSunny.12 mph34%30.48 "Hg10 mi
6:20 PM48 °FPassing clouds.12 mph32%30.48 "HgN/A
5:50 PM48 °FPassing clouds.13 mph32%30.48 "HgN/A
5:20 PM50 °FPassing clouds.12 mph32%30.48 "HgN/A
4:50 PM50 °FSunny.12 mph30%30.48 "Hg10 mi
4:20 PM50 °FPassing clouds.12 mph30%30.48 "HgN/A
3:50 PM50 °FPassing clouds.12 mph30%30.48 "HgN/A
3:20 PM50 °FPassing clouds.14 mph32%30.48 "HgN/A
2:50 PM50 °FSunny.13 mph32%30.48 "Hg10 mi
2:20 PM50 °FSunny.13 mph30%30.48 "Hg10 mi
1:50 PM52 °FSunny.12 mph28%30.48 "Hg10 mi
1:20 PM52 °FSunny.12 mph28%30.48 "Hg10 mi
12:50 PM50 °FPassing clouds.13 mph30%30.48 "HgN/A
12:20 PM50 °FPassing clouds.13 mph30%30.45 "HgN/A
11:50 AM50 °FPassing clouds.13 mph28%30.48 "HgN/A
11:20 AM50 °FPassing clouds.12 mph30%30.45 "HgN/A
10:50 AM48 °FSunny.13 mph32%30.48 "Hg10 mi
10:20 AM48 °FPassing clouds.14 mph32%30.45 "HgN/A
9:50 AM48 °FSunny.15 mph32%30.45 "Hg10 mi
9:20 AM46 °FSunny.16 mph34%30.45 "Hg10 mi
8:50 AM46 °FPassing clouds.13 mph43%30.45 "HgN/A
8:20 AM45 °FSunny.12 mph49%30.42 "Hg10 mi
7:50 AM43 °FPassing clouds.9 mph57%30.42 "HgN/A
7:20 AM41 °FSunny.7 mph66%30.39 "Hg10 mi
6:50 AM41 °FSunny.9 mph66%30.39 "Hg10 mi
6:20 AM39 °FSunny.8 mph70%30.39 "Hg10 mi
5:50 AM39 °FClear.7 mph70%30.36 "Hg10 mi
5:20 AM37 °FClear.9 mph75%30.36 "Hg10 mi
4:50 AM37 °FOvercast.9 mph75%30.33 "HgN/A
4:20 AM39 °FOvercast.8 mph70%30.33 "HgN/A
3:50 AM39 °FOvercast.7 mph70%30.33 "HgN/A
3:20 AM39 °FOvercast.8 mph70%30.30 "HgN/A
Weather by CustomWeather, © 2014

See weather overview